FENGYUN 1C DEB, 30696

Orbit data source: Space-Track

FENGYUN 1C DEB, 30696 is space debris in SSO originally from a launch on Mon, 10 May 1999 UTC launched from the Taiyaun Space Center, China (TSC). Fengyun 1C debris stems from the Chinese weather satellite Fengyun-1C, which was intentionally destroyed by a Chinese anti-satellite missile in 2007. This event dramatically increased the amount of space debris, with thousands of trackable fragments posing hazards to satellites and human spaceflight. The Fengyun 1C debris cloud has become a focal point in discussions about space sustainability and the need for international regulations to prevent the creation of new debris.

Loading next visibility...
Identifier
30696, 1999-025ARE
Orbit
SSO
Country
Flag of CNCN / PRC
Related business
Manufacturer
Unknown
Mission
Spacecraft
Bus & Motor
Unknown
Mass
Unknown
Launch date (UTC)
1999-05-10 (27 years ago)
Launch vehicle
Unknown
Launch site
Taiyaun Space Center, China (TSC)
Object type
Payload
Rocket body
Debris
Shape & HBR
Unknown shape, 0.1 m
Radar Cross Section
Small (<0.1 m²)

Expand to show TLE details & history
Last TLE update: 13 hours ago

TLE from 13 hours ago
0 FENGYUN 1C DEB
1 30696U 99025ARE 26121.85753985  .00002864  00000-0  78431-3 0  9997
2 30696  98.3685 174.0558 0088776  62.1641 354.5208 14.45612914  3154
Epoch: 2026-05-01T20:34Z
TLE epoch observation values (Epoch: 2026-05-01T20:34:51.443Z)
Latitude
55.77517°
Longitude
-6.86315°
Altitude
686.369 km
Speed
7.552 km/s
True Right ascension
10h 46m 32s
True Declination
55° 36' 48"
Sunlit
Object was in daylight at epoch
Visualization orbit readout
Latitude
Unknown
Longitude
Unknown
Altitude
Unknown
Speed
Unknown
Apparent Right ascension
Unknown
Apparent Declination
Unknown
Sunlit
N/A
Visualization observer readout
Local Sidereal Time
17:21:50
Azimuth
Unknown
Elevation
Unknown
Doppler factor
Unknown
Orbital elements
Apogee altitude
800.288 km
Perigee altitude
673.955 km
Semi-major axis
7,115.258 km
Eccentricity
0.00888
Inclination
98.3685°
RAAN
174.0558°
Arg. of periapsis
62.1641°
True anomaly
354.42258°
Mean anomaly
354.5208°
Eccentric anomaly
354.4718°
Mean motion
3.61624 °/min
Orbital period
99.55 mins
BSTAR
0.00078431
Loading maneuver chart data...
Computing Atmospheric mass density...

Documentation

Showing up to 5 results
|